カタログに戻る

FENGYUN 1C DEB

運用中SSO
NORAD 31497·DEBRIS·🇨🇳 China

打ち上げ May 10, 1999 から Taiyuan Satellite Launch Center

Loading…

次のパス (今後24時間)

TLE

最新Source: Space-Track

元期: Sep 13, 2026, 04:22 UTC

1 31497U 99025BWL 26256.18201480  .00000243  00000-0  80016-4 0  9992
2 31497  98.3982 238.9386 0166043 238.3308 180.8747 14.39581190 14394

AllMySatでFENGYUN 1C DEBをリアルタイム追跡

Download on the App Store